TimeCDT,TemperatureF,Dew PointF,Humidity,Sea Level PressureIn,VisibilityMPH,Wind Direction,Wind SpeedMPH,Gust SpeedMPH,PrecipitationIn,Events,Conditions,WindDirDegrees,DateUTC
12:52 AM,44.1,23.0,43,30.19,10.0,ENE,6.9,-,N/A,,Clear,60,2013-04-04 05:52:00
1:52 AM,44.1,23.0,43,30.16,10.0,ENE,8.1,-,N/A,,Clear,70,2013-04-04 06:52:00
2:52 AM,43.0,23.0,45,30.12,10.0,East,9.2,-,N/A,,Clear,90,2013-04-04 07:52:00
3:52 AM,43.0,23.0,45,30.12,10.0,East,8.1,-,N/A,,Clear,80,2013-04-04 08:52:00
4:52 AM,43.0,21.9,43,30.10,10.0,East,9.2,-,N/A,,Clear,80,2013-04-04 09:52:00
5:52 AM,43.0,23.0,45,30.10,10.0,NE,5.8,-,N/A,,Overcast,50,2013-04-04 10:52:00
6:52 AM,43.0,23.0,45,30.10,10.0,NE,3.5,-,N/A,,Overcast,40,2013-04-04 11:52:00
7:52 AM,44.1,24.1,45,30.10,10.0,ENE,5.8,-,N/A,,Overcast,70,2013-04-04 12:52:00
8:52 AM,43.0,30.0,60,30.12,9.0,Calm,Calm,-,0.00,,Unknown,0,2013-04-04 13:52:00
9:52 AM,39.9,33.1,77,30.12,6.0,NE,4.6,-,0.03,Rain,Light Rain,50,2013-04-04 14:52:00
10:52 AM,39.9,35.1,83,30.12,5.0,NE,4.6,-,0.05,Rain,Light Rain,50,2013-04-04 15:52:00
11:49 AM,39.2,35.6,87,30.11,3.0,East,6.9,-,0.04,Rain,Light Rain,90,2013-04-04 16:49:00
11:52 AM,39.9,37.0,89,30.11,3.0,East,5.8,-,0.04,Rain,Light Rain,90,2013-04-04 16:52:00
12:15 PM,39.2,37.4,93,30.10,4.0,East,8.1,-,0.01,Rain,Light Rain,90,2013-04-04 17:15:00
12:49 PM,39.2,37.4,93,30.09,2.0,Calm,Calm,-,0.05,Rain,Rain,0,2013-04-04 17:49:00
12:52 PM,39.9,37.9,93,30.10,2.0,Calm,Calm,-,0.06,Rain,Rain,0,2013-04-04 17:52:00
1:08 PM,41.0,39.2,93,30.09,3.0,East,3.5,-,0.01,Rain,Light Rain,90,2013-04-04 18:08:00
1:22 PM,41.0,39.2,93,30.08,4.0,East,4.6,-,0.01,Rain,Light Rain,90,2013-04-04 18:22:00
1:50 PM,42.8,39.2,87,30.07,4.0,Calm,Calm,-,0.02,Rain,Light Rain,0,2013-04-04 18:50:00
1:52 PM,42.1,39.9,92,30.07,4.0,East,3.5,-,0.03,Rain,Light Rain,100,2013-04-04 18:52:00
2:00 PM,42.8,39.2,87,30.06,4.0,East,3.5,-,0.00,Rain,Light Rain,90,2013-04-04 19:00:00
2:52 PM,44.1,42.1,93,30.05,4.0,Calm,Calm,-,0.02,Rain,Light Rain,0,2013-04-04 19:52:00
3:52 PM,46.0,43.0,89,30.04,7.0,ENE,3.5,-,0.00,,Overcast,70,2013-04-04 20:52:00
4:52 PM,46.9,44.1,90,30.03,6.0,Variable,3.5,-,0.01,Rain,Light Rain,0,2013-04-04 21:52:00
5:04 PM,46.4,44.6,93,30.02,6.0,ENE,3.5,-,0.00,Rain,Light Rain,60,2013-04-04 22:04:00
5:28 PM,46.4,44.6,93,30.02,6.0,Calm,Calm,-,0.00,,Overcast,0,2013-04-04 22:28:00
5:37 PM,46.4,44.6,93,30.02,5.0,North,3.5,-,0.00,,Overcast,350,2013-04-04 22:37:00
5:52 PM,46.9,44.1,90,30.02,5.0,Calm,Calm,-,0.00,,Overcast,0,2013-04-04 22:52:00
6:52 PM,46.9,44.1,90,30.03,5.0,North,4.6,-,N/A,,Overcast,10,2013-04-04 23:52:00
7:52 PM,46.0,44.1,93,30.03,7.0,North,5.8,-,N/A,,Overcast,360,2013-04-05 00:52:00
8:38 PM,46.4,44.6,93,30.03,8.0,NNW,5.8,-,N/A,,Overcast,340,2013-04-05 01:38:00
8:52 PM,46.0,44.1,93,30.04,7.0,North,4.6,-,N/A,,Overcast,350,2013-04-05 01:52:00
9:08 PM,46.4,44.6,93,30.04,7.0,Calm,Calm,-,N/A,,Overcast,0,2013-04-05 02:08:00
9:31 PM,46.4,44.6,93,30.03,6.0,Calm,Calm,-,N/A,,Overcast,0,2013-04-05 02:31:00
9:52 PM,45.0,44.1,97,30.04,5.0,Calm,Calm,-,N/A,,Overcast,0,2013-04-05 02:52:00
10:52 PM,46.0,44.1,93,30.03,5.0,Calm,Calm,-,N/A,,Overcast,0,2013-04-05 03:52:00
11:29 PM,44.6,42.8,93,30.02,3.0,Calm,Calm,-,N/A,,Scattered Clouds,0,2013-04-05 04:29:00
11:35 PM,44.6,42.8,93,30.03,1.8,Calm,Calm,-,N/A,,Partly Cloudy,0,2013-04-05 04:35:00
11:50 PM,44.6,42.8,93,30.03,0.2,Calm,Calm,-,N/A,Fog,Fog,0,2013-04-05 04:50:00
11:52 PM,43.0,42.1,97,30.04,0.2,Calm,Calm,-,N/A,Fog,Fog,0,2013-04-05 04:52:00